Total_Precipitation_Accumulation
0.00 0.00 0.00 0.00 0.00 0.01 0.02 0.02 0.03 0.03 0.03 0.05 0.07 0.09 0.13 0.18 0.21 0.25 0.25 0.27 0.28 0.27 0.28 0.30 0.32 0.36 0.41 0.41 0.40 0.37 0.33 0.34 0.29 0.09 0.05 0.07 0.13 0.18 0.19 0.18 0.16 0.15 0.17
0.00 0.00 0.00 0.00 0.01 0.02 0.04 0.06 0.06 0.06 0.07 0.09 0.12 0.15 0.20 0.23 0.26 0.32 0.36 0.37 0.41 0.40 0.36 0.36 0.37 0.39 0.43 0.46 0.48 0.46 0.40 0.34 0.32 0.19 0.07 0.07 0.12 0.19 0.23 0.25 0.23 0.19 0.16
0.00 0.00 0.00 0.00 0.01 0.03 0.06 0.10 0.15 0.19 0.21 0.23 0.26 0.31 0.37 0.40 0.42 0.45 0.49 0.56 0.61 0.60 0.58 0.56 0.51 0.49 0.51 0.50 0.51 0.50 0.44 0.36 0.31 0.25 0.14 0.11 0.15 0.21 0.27 0.30 0.31 0.28 0.23
0.00 0.00 0.00 0.01 0.04 0.06 0.09 0.15 0.24 0.34 0.41 0.46 0.50 0.53 0.58 0.66 0.76 0.81 0.79 0.78 0.75 0.74 0.73 0.73 0.73 0.71 0.70 0.67 0.63 0.55 0.48 0.43 0.36 0.29 0.23 0.19 0.21 0.24 0.32 0.36 0.38 0.36 0.33
0.01 0.01 0.02 0.05 0.10 0.17 0.20 0.23 0.31 0.39 0.47 0.51 0.52 0.53 0.58 0.79 1.14 1.25 1.07 0.79 0.66 0.65 0.65 0.68 0.76 0.86 0.88 0.87 0.86 0.70 0.53 0.49 0.46 0.40 0.32 0.27 0.26 0.30 0.37 0.42 0.49 0.47 0.44
0.02 0.03 0.06 0.11 0.18 0.25 0.29 0.32 0.39 0.44 0.47 0.46 0.46 0.46 0.48 0.66 1.05 1.18 0.86 0.52 0.43 0.48 0.54 0.54 0.57 0.68 0.74 0.75 0.81 0.77 0.71 0.69 0.67 0.58 0.50 0.44 0.38 0.38 0.42 0.51 0.57 0.63 0.59
0.04 0.06 0.10 0.13 0.17 0.20 0.23 0.27 0.32 0.30 0.26 0.28 0.33 0.32 0.32 0.43 0.78 0.91 0.57 0.25 0.20 0.26 0.35 0.39 0.40 0.48 0.58 0.59 0.56 0.51 0.56 0.67 0.79 0.79 0.74 0.67 0.56 0.49 0.49 0.51 0.57 0.65 0.67
0.04 0.07 0.10 0.12 0.16 0.14 0.13 0.16 0.19 0.16 0.15 0.18 0.19 0.15 0.13 0.20 0.53 0.72 0.44 0.13 0.11 0.17 0.25 0.30 0.30 0.35 0.48 0.53 0.45 0.41 0.44 0.56 0.75 0.83 0.90 0.83 0.70 0.62 0.62 0.66 0.70 0.70 0.78
0.04 0.05 0.07 0.10 0.14 0.11 0.09 0.10 0.12 0.12 0.11 0.10 0.09 0.06 0.04 0.08 0.36 0.66 0.46 0.12 0.10 0.12 0.18 0.27 0.25 0.21 0.34 0.32 0.29 0.35 0.35 0.43 0.53 0.66 0.69 0.67 0.64 0.68 0.75 0.77 0.85 0.91 1.03
0.02 0.03 0.03 0.04 0.06 0.04 0.03 0.02 0.03 0.04 0.05 0.04 0.02 0.01 0.01 0.02 0.19 0.59 0.60 0.19 0.11 0.09 0.11 0.18 0.26 0.22 0.23 0.20 0.19 0.25 0.32 0.36 0.33 0.34 0.35 0.38 0.42 0.50 0.65 0.80 0.94 1.03 1.12
0.00 0.00 0.00 0.00 0.00 0.00 0.00 0.00 0.01 0.01 0.01 0.01 0.01 0.00 0.00 0.01 0.05 0.36 0.68 0.41 0.17 0.09 0.09 0.16 0.20 0.17 0.14 0.13 0.12 0.19 0.32 0.25 0.20 0.23 0.25 0.28 0.35 0.44 0.57 0.72 0.88 1.01 1.10
0.00 0.00 0.00 0.00 0.00 0.00 0.00 0.00 0.00 0.01 0.01 0.01 0.01 0.01 0.01 0.01 0.04 0.21 0.43 0.49 0.30 0.11 0.12 0.11 0.12 0.09 0.06 0.05 0.06 0.10 0.09 0.08 0.09 0.12 0.16 0.22 0.31 0.43 0.55 0.65 0.77 0.93 1.07
0.00 0.00 0.00 0.00 0.00 0.00 0.01 0.01 0.01 0.01 0.03 0.05 0.04 0.03 0.02 0.02 0.06 0.17 0.19 0.19 0.22 0.16 0.22 0.20 0.07 0.02 0.01 0.01 0.02 0.02 0.02 0.04 0.06 0.10 0.14 0.21 0.29 0.40 0.44 0.49 0.58 0.71 0.84
0.00 0.00 0.00 0.00 0.00 0.00 0.00 0.01 0.02 0.04 0.15 0.18 0.11 0.07 0.04 0.05 0.15 0.31 0.19 0.09 0.09 0.10 0.13 0.12 0.03 0.00 0.00 0.00 0.00 0.01 0.01 0.03 0.05 0.09 0.13 0.16 0.19 0.24 0.31 0.40 0.48 0.58 0.70
0.00 0.00 0.00 0.00 0.00 0.01 0.00 0.01 0.03 0.06 0.22 0.31 0.20 0.18 0.16 0.20 0.33 0.39 0.27 0.22 0.20 0.16 0.07 0.03 0.01 0.00 0.00 0.00 0.00 0.00 0.01 0.01 0.02 0.04 0.07 0.10 0.13 0.19 0.25 0.33 0.42 0.50 0.63
0.00 0.00 0.01 0.01 0.01 0.01 0.01 0.01 0.01 0.03 0.09 0.10 0.11 0.17 0.18 0.28 0.30 0.21 0.19 0.19 0.18 0.13 0.03 0.01 0.01 0.00 0.00 0.00 0.00 0.00 0.00 0.01 0.02 0.03 0.04 0.07 0.11 0.16 0.21 0.26 0.34 0.43 0.54
0.01 0.01 0.02 0.02 0.01 0.01 0.01 0.02 0.02 0.01 0.01 0.02 0.03 0.07 0.14 0.21 0.17 0.13 0.14 0.11 0.09 0.04 0.01 0.01 0.01 0.01 0.01 0.01 0.01 0.00 0.00 0.00 0.01 0.01 0.03 0.04 0.07 0.11 0.15 0.20 0.26 0.34 0.45
0.01 0.01 0.02 0.02 0.02 0.03 0.03 0.03 0.03 0.03 0.02 0.00 0.00 0.01 0.06 0.11 0.09 0.07 0.08 0.06 0.02 0.01 0.01 0.01 0.01 0.01 0.01 0.01 0.01 0.01 0.00 0.00 0.00 0.01 0.01 0.02 0.04 0.07 0.11 0.15 0.21 0.29 0.37
0.01 0.02 0.04 0.03 0.03 0.03 0.03 0.03 0.03 0.03 0.02 0.01 0.00 0.00 0.01 0.02 0.02 0.02 0.02 0.01 0.01 0.01 0.01 0.01 0.02 0.02 0.02 0.02 0.01 0.01 0.01 0.00 0.00 0.00 0.01 0.01 0.02 0.04 0.07 0.10 0.14 0.21 0.27
0.01 0.01 0.03 0.03 0.03 0.03 0.03 0.03 0.03 0.03 0.03 0.02 0.02 0.02 0.05 0.04 0.01 0.01 0.01 0.01 0.02 0.02 0.02 0.02 0.02 0.02 0.02 0.02 0.02 0.02 0.01 0.01 0.00 0.00 0.00 0.00 0.01 0.02 0.05 0.07 0.10 0.14 0.21
0.01 0.01 0.02 0.02 0.02 0.03 0.04 0.04 0.04 0.04 0.04 0.03 0.02 0.03 0.13 0.09 0.02 0.01 0.01 0.02 0.04 0.04 0.04 0.03 0.03 0.03 0.03 0.03 0.03 0.02 0.02 0.01 0.01 0.00 0.00 0.00 0.00 0.01 0.02 0.04 0.07 0.10 0.14
0.02 0.03 0.03 0.04 0.04 0.04 0.05 0.04 0.04 0.05 0.04 0.03 0.02 0.01 0.04 0.02 0.02 0.02 0.02 0.03 0.04 0.05 0.06 0.06 0.05 0.05 0.05 0.06 0.05 0.04 0.03 0.02 0.01 0.00 0.00 0.00 0.00 0.01 0.01 0.02 0.04 0.06 0.09
0.05 0.05 0.03 0.02 0.02 0.02 0.02 0.02 0.03 0.04 0.04 0.03 0.03 0.02 0.02 0.02 0.03 0.03 0.04 0.04 0.05 0.05 0.06 0.07 0.07 0.06 0.06 0.07 0.06 0.06 0.05 0.03 0.01 0.01 0.01 0.00 0.01 0.01 0.01 0.02 0.03 0.05 0.08
0.05 0.03 0.02 0.02 0.01 0.02 0.02 0.03 0.03 0.05 0.05 0.04 0.04 0.04 0.03 0.03 0.03 0.03 0.04 0.04 0.05 0.05 0.06 0.09 0.09 0.08 0.09 0.10 0.08 0.06 0.05 0.04 0.02 0.02 0.01 0.01 0.02 0.01 0.02 0.02 0.03 0.04 0.07
0.01 0.01 0.02 0.02 0.03 0.03 0.03 0.03 0.04 0.05 0.06 0.06 0.06 0.05 0.05 0.04 0.04 0.04 0.04 0.05 0.06 0.06 0.06 0.08 0.10 0.11 0.11 0.11 0.11 0.10 0.08 0.07 0.08 0.11 0.17 0.19 0.15 0.11 0.08 0.07 0.05 0.05 0.06
0.01 0.02 0.03 0.04 0.04 0.04 0.06 0.07 0.07 0.08 0.09 0.08 0.07 0.07 0.07 0.06 0.06 0.05 0.06 0.08 0.10 0.10 0.09 0.09 0.10 0.13 0.13 0.11 0.11 0.11 0.11 0.13 0.21 0.32 0.39 0.36 0.23 0.13 0.09 0.07 0.06 0.06 0.07